Year,Month,Day,Hour,Minute,Value (Times are PST for temperature in C)
2013,05,24,00,00,9.30
2013,05,24,00,01,9.30
2013,05,24,00,02,9.30
2013,05,24,00,03,9.30
2013,05,24,00,04,9.30
2013,05,24,00,05,9.30
2013,05,24,00,06,9.30
2013,05,24,00,07,9.30
2013,05,24,00,08,9.30
2013,05,24,00,09,9.30
2013,05,24,00,10,9.30
2013,05,24,00,11,9.30
2013,05,24,00,12,9.30
2013,05,24,00,13,9.30
2013,05,24,00,14,9.30
2013,05,24,00,15,9.30
2013,05,24,00,16,9.30
2013,05,24,00,17,9.30
2013,05,24,00,18,9.30
2013,05,24,00,19,9.30
2013,05,24,00,20,9.30
2013,05,24,00,21,9.30
2013,05,24,00,22,9.30
2013,05,24,00,23,9.30
2013,05,24,00,24,9.30
2013,05,24,00,25,9.30
2013,05,24,00,26,9.30
2013,05,24,00,27,9.30
2013,05,24,00,28,9.30
2013,05,24,00,29,9.30
2013,05,24,00,30,9.30
2013,05,24,00,31,9.20
2013,05,24,00,32,9.20
2013,05,24,00,33,9.20
2013,05,24,00,34,9.20
2013,05,24,00,35,9.20
2013,05,24,00,36,9.30
2013,05,24,00,37,9.30
2013,05,24,00,38,9.30
2013,05,24,00,39,9.30
2013,05,24,00,40,9.20
2013,05,24,00,41,9.20
2013,05,24,00,42,9.20
2013,05,24,00,43,9.20
2013,05,24,00,44,9.10
2013,05,24,00,45,9.10
2013,05,24,00,46,9.00
2013,05,24,00,47,9.00
2013,05,24,00,48,9.00
2013,05,24,00,49,8.90
2013,05,24,00,50,8.90
2013,05,24,00,51,8.90
2013,05,24,00,52,8.90
2013,05,24,00,53,8.90
2013,05,24,00,54,8.90
2013,05,24,00,55,8.90
2013,05,24,00,56,8.90
2013,05,24,00,57,8.90
2013,05,24,00,58,8.90
2013,05,24,00,59,8.90
2013,05,24,01,00,8.90
2013,05,24,01,01,8.90
2013,05,24,01,02,8.90
2013,05,24,01,03,8.90
2013,05,24,01,04,8.90
2013,05,24,01,05,8.90
2013,05,24,01,06,8.90
2013,05,24,01,07,8.80
2013,05,24,01,08,8.80
2013,05,24,01,09,8.80
2013,05,24,01,10,8.80
2013,05,24,01,11,8.80
2013,05,24,01,12,8.80
2013,05,24,01,13,8.80
2013,05,24,01,14,8.70
2013,05,24,01,15,8.70
2013,05,24,01,16,8.70
2013,05,24,01,17,8.70
2013,05,24,01,18,8.70
2013,05,24,01,19,8.60
2013,05,24,01,20,8.60
2013,05,24,01,21,8.60
2013,05,24,01,22,8.60
2013,05,24,01,23,8.60
2013,05,24,01,24,8.60
2013,05,24,01,25,8.60
2013,05,24,01,26,8.60
2013,05,24,01,27,8.60
2013,05,24,01,28,8.60
2013,05,24,01,29,8.50
2013,05,24,01,30,8.50
2013,05,24,01,31,8.50
2013,05,24,01,32,8.50
2013,05,24,01,33,8.50
2013,05,24,01,34,8.40
2013,05,24,01,35,8.40
2013,05,24,01,36,8.30
2013,05,24,01,37,8.30
2013,05,24,01,38,8.30
2013,05,24,01,39,8.30
2013,05,24,01,40,8.40
2013,05,24,01,41,8.40
2013,05,24,01,42,8.40
2013,05,24,01,43,8.40
2013,05,24,01,44,8.50
2013,05,24,01,45,8.50
2013,05,24,01,46,8.50
2013,05,24,01,47,8.60
2013,05,24,01,48,8.60
2013,05,24,01,49,8.60
2013,05,24,01,50,8.60
2013,05,24,01,51,8.60
2013,05,24,01,52,8.60
2013,05,24,01,53,8.60
2013,05,24,01,54,8.60
2013,05,24,01,55,8.60
2013,05,24,01,56,8.60
2013,05,24,01,57,8.70
2013,05,24,01,58,8.70
2013,05,24,01,59,8.70
2013,05,24,02,00,8.70
2013,05,24,02,01,8.60
2013,05,24,02,02,8.60
2013,05,24,02,03,8.60
2013,05,24,02,04,8.60
2013,05,24,02,05,8.60
2013,05,24,02,06,8.60
2013,05,24,02,07,8.60
2013,05,24,02,08,8.60
2013,05,24,02,09,8.60
2013,05,24,02,10,8.60
2013,05,24,02,11,8.60
2013,05,24,02,12,8.50
2013,05,24,02,13,8.50
2013,05,24,02,14,8.50
2013,05,24,02,15,8.50
2013,05,24,02,16,8.50
2013,05,24,02,17,8.40
2013,05,24,02,18,8.40
2013,05,24,02,19,8.40
2013,05,24,02,20,8.40
2013,05,24,02,21,8.40
2013,05,24,02,22,8.40
2013,05,24,02,23,8.40
2013,05,24,02,24,8.40
2013,05,24,02,25,8.40
2013,05,24,02,26,8.40
2013,05,24,02,27,8.40
2013,05,24,02,28,8.40
2013,05,24,02,29,8.40
2013,05,24,02,30,8.40
2013,05,24,02,31,8.40
2013,05,24,02,32,8.40
2013,05,24,02,33,8.40
2013,05,24,02,34,8.40
2013,05,24,02,35,8.40
2013,05,24,02,36,8.30
2013,05,24,02,37,8.30
2013,05,24,02,38,8.30
2013,05,24,02,39,8.30
2013,05,24,02,40,8.30
2013,05,24,02,41,8.30
2013,05,24,02,42,8.30
2013,05,24,02,43,8.30
2013,05,24,02,44,8.20
2013,05,24,02,45,8.30
2013,05,24,02,46,8.30
2013,05,24,02,47,8.30
2013,05,24,02,48,8.30
2013,05,24,02,49,8.30
2013,05,24,02,50,8.30
2013,05,24,02,51,8.30
2013,05,24,02,52,8.30
2013,05,24,02,53,8.40
2013,05,24,02,54,8.40
2013,05,24,02,55,8.40
2013,05,24,02,56,8.40
2013,05,24,02,57,8.40
2013,05,24,02,58,8.30
2013,05,24,02,59,8.30
2013,05,24,03,00,8.30
2013,05,24,03,01,8.40
2013,05,24,03,02,8.30
2013,05,24,03,03,8.30
2013,05,24,03,04,8.30
2013,05,24,03,05,8.30
2013,05,24,03,06,8.30
2013,05,24,03,07,8.30
2013,05,24,03,08,8.30
2013,05,24,03,09,8.30
2013,05,24,03,10,8.30
2013,05,24,03,11,8.30
2013,05,24,03,12,8.30
2013,05,24,03,13,8.30
2013,05,24,03,14,8.30
2013,05,24,03,15,8.20
2013,05,24,03,16,8.20
2013,05,24,03,17,8.20
2013,05,24,03,18,8.20
2013,05,24,03,19,8.20
2013,05,24,03,20,8.20
2013,05,24,03,21,8.20
2013,05,24,03,22,8.20
2013,05,24,03,23,8.20
2013,05,24,03,24,8.20
2013,05,24,03,25,8.10
2013,05,24,03,26,8.10
2013,05,24,03,27,8.10
2013,05,24,03,28,8.10
2013,05,24,03,29,8.00
2013,05,24,03,30,8.00
2013,05,24,03,31,8.00
2013,05,24,03,32,8.00
2013,05,24,03,33,8.00
2013,05,24,03,34,8.00
2013,05,24,03,35,8.00
2013,05,24,03,36,8.00
2013,05,24,03,37,8.00
2013,05,24,03,38,8.10
2013,05,24,03,39,8.10
2013,05,24,03,40,8.10
2013,05,24,03,41,8.10
2013,05,24,03,42,8.10
2013,05,24,03,43,8.10
2013,05,24,03,44,8.20
2013,05,24,03,45,8.20
2013,05,24,03,46,8.20
2013,05,24,03,47,8.20
2013,05,24,03,48,8.10
2013,05,24,03,49,8.10
2013,05,24,03,50,8.10
2013,05,24,03,51,8.10
2013,05,24,03,52,8.10
2013,05,24,03,53,8.10
2013,05,24,03,54,8.10
2013,05,24,03,55,8.10
2013,05,24,03,56,8.10
2013,05,24,03,57,8.10
2013,05,24,03,58,8.10
2013,05,24,03,59,8.10
2013,05,24,04,00,8.10
2013,05,24,04,01,8.10
2013,05,24,04,02,8.10
2013,05,24,04,03,8.10
2013,05,24,04,04,8.10
2013,05,24,04,05,8.10
2013,05,24,04,06,8.10
2013,05,24,04,07,8.10
2013,05,24,04,08,8.10
2013,05,24,04,09,8.10
2013,05,24,04,10,8.10
2013,05,24,04,11,8.10
2013,05,24,04,12,8.10
2013,05,24,04,13,8.10
2013,05,24,04,14,8.10
2013,05,24,04,15,8.10
2013,05,24,04,16,8.10
2013,05,24,04,17,8.00
2013,05,24,04,18,8.00
2013,05,24,04,19,8.00
2013,05,24,04,20,8.00
2013,05,24,04,21,8.00
2013,05,24,04,22,8.00
2013,05,24,04,23,8.00
2013,05,24,04,24,8.00
2013,05,24,04,25,8.10
2013,05,24,04,26,8.10
2013,05,24,04,27,8.10
2013,05,24,04,28,8.10
2013,05,24,04,29,8.10
2013,05,24,04,30,8.10
2013,05,24,04,31,8.10
2013,05,24,04,32,8.10
2013,05,24,04,33,8.10
2013,05,24,04,34,8.20
2013,05,24,04,35,8.20
2013,05,24,04,36,8.20
2013,05,24,04,37,8.20
2013,05,24,04,38,8.20
2013,05,24,04,39,8.20
2013,05,24,04,40,8.20
2013,05,24,04,41,8.10
2013,05,24,04,42,8.10
2013,05,24,04,43,8.10
2013,05,24,04,44,8.00
2013,05,24,04,45,8.00
2013,05,24,04,46,8.00
2013,05,24,04,47,7.90
2013,05,24,04,48,7.90
2013,05,24,04,49,7.90
2013,05,24,04,50,7.90
2013,05,24,04,51,7.90
2013,05,24,04,52,7.90
2013,05,24,04,53,7.80
2013,05,24,04,54,7.80
2013,05,24,04,55,7.80
2013,05,24,04,56,7.80
2013,05,24,04,57,7.80
2013,05,24,04,58,7.80
2013,05,24,04,59,7.80
2013,05,24,05,00,7.70
2013,05,24,05,01,7.70
2013,05,24,05,02,7.70
2013,05,24,05,03,7.70
2013,05,24,05,04,7.60
2013,05,24,05,05,7.60
2013,05,24,05,06,7.60
2013,05,24,05,07,7.60
2013,05,24,05,08,7.60
2013,05,24,05,09,7.60
2013,05,24,05,10,7.60
2013,05,24,05,11,7.60
2013,05,24,05,12,7.60
2013,05,24,05,13,7.60
2013,05,24,05,14,7.70
2013,05,24,05,15,7.70
2013,05,24,05,16,7.70
2013,05,24,05,17,7.70
2013,05,24,05,18,7.70
2013,05,24,05,19,7.70
2013,05,24,05,20,7.60
2013,05,24,05,21,7.60
2013,05,24,05,22,7.60
2013,05,24,05,23,7.60
2013,05,24,05,24,7.50
2013,05,24,05,25,7.50
2013,05,24,05,26,7.40
2013,05,24,05,27,7.40
2013,05,24,05,28,7.40
2013,05,24,05,29,7.40
2013,05,24,05,30,7.40
2013,05,24,05,31,7.40
2013,05,24,05,32,7.40
2013,05,24,05,33,7.40
2013,05,24,05,34,7.40
2013,05,24,05,35,7.40
2013,05,24,05,36,7.40
2013,05,24,05,37,7.40
2013,05,24,05,38,7.40
2013,05,24,05,39,7.40
2013,05,24,05,40,7.40
2013,05,24,05,41,7.40
2013,05,24,05,42,7.30
2013,05,24,05,43,7.30
2013,05,24,05,44,7.30
2013,05,24,05,45,7.40
2013,05,24,05,46,7.40
2013,05,24,05,47,7.40
2013,05,24,05,48,7.40
2013,05,24,05,49,7.40
2013,05,24,05,50,7.40
2013,05,24,05,51,7.40
2013,05,24,05,52,7.50
2013,05,24,05,53,7.50
2013,05,24,05,54,7.50
2013,05,24,05,55,7.50
2013,05,24,05,56,7.60
2013,05,24,05,57,7.60
2013,05,24,05,58,7.60
2013,05,24,05,59,7.60
2013,05,24,06,00,7.60
2013,05,24,06,01,7.70
2013,05,24,06,02,7.70
2013,05,24,06,03,7.70
2013,05,24,06,04,7.60
2013,05,24,06,05,7.60
2013,05,24,06,06,7.60
2013,05,24,06,07,7.60
2013,05,24,06,08,7.60
2013,05,24,06,09,7.60
2013,05,24,06,10,7.60
2013,05,24,06,11,7.60
2013,05,24,06,12,7.60
2013,05,24,06,13,7.60
2013,05,24,06,14,7.50
2013,05,24,06,15,7.50
2013,05,24,06,16,7.50
2013,05,24,06,17,7.50
2013,05,24,06,18,7.50
2013,05,24,06,19,7.50
2013,05,24,06,20,7.50
2013,05,24,06,21,7.60
2013,05,24,06,22,7.50
2013,05,24,06,23,7.60
2013,05,24,06,24,7.60
2013,05,24,06,25,7.60
2013,05,24,06,26,7.60
2013,05,24,06,27,7.60
2013,05,24,06,28,7.60
2013,05,24,06,29,7.60
2013,05,24,06,30,7.60
2013,05,24,06,31,7.60
2013,05,24,06,32,7.60
2013,05,24,06,33,7.60
2013,05,24,06,34,7.70
2013,05,24,06,35,7.70
2013,05,24,06,36,7.70
2013,05,24,06,37,7.70
2013,05,24,06,38,7.70
2013,05,24,06,39,7.70
2013,05,24,06,40,7.70
2013,05,24,06,41,7.70
2013,05,24,06,42,7.70
2013,05,24,06,43,7.80
2013,05,24,06,44,7.80
2013,05,24,06,45,7.80
2013,05,24,06,46,7.80
2013,05,24,06,47,7.80
2013,05,24,06,48,7.80
2013,05,24,06,49,7.80
2013,05,24,06,50,7.90
2013,05,24,06,51,7.90
2013,05,24,06,52,7.90
2013,05,24,06,53,7.90
2013,05,24,06,54,7.90
2013,05,24,06,55,7.90
2013,05,24,06,56,7.90
2013,05,24,06,57,8.00
2013,05,24,06,58,8.00
2013,05,24,06,59,8.10
2013,05,24,07,00,8.10
2013,05,24,07,01,8.10
2013,05,24,07,02,8.10
2013,05,24,07,03,8.20
2013,05,24,07,04,8.20
2013,05,24,07,05,8.20
2013,05,24,07,06,8.30
2013,05,24,07,07,8.30
2013,05,24,07,08,8.30
2013,05,24,07,09,8.40
2013,05,24,07,10,8.50
2013,05,24,07,11,8.50
2013,05,24,07,12,8.60
2013,05,24,07,13,8.70
2013,05,24,07,14,8.70
2013,05,24,07,15,8.70
2013,05,24,07,16,8.70
2013,05,24,07,17,8.80
2013,05,24,07,18,8.80
2013,05,24,07,19,8.80
2013,05,24,07,20,8.80
2013,05,24,07,21,8.80
2013,05,24,07,22,8.70
2013,05,24,07,23,8.70
2013,05,24,07,24,8.70
2013,05,24,07,25,8.70
2013,05,24,07,26,8.70
2013,05,24,07,27,8.70
2013,05,24,07,28,8.70
2013,05,24,07,29,8.70
2013,05,24,07,30,8.70
2013,05,24,07,31,8.70
2013,05,24,07,32,8.70
2013,05,24,07,33,8.70
2013,05,24,07,34,8.70
2013,05,24,07,35,8.70
2013,05,24,07,36,8.70
2013,05,24,07,37,8.80
2013,05,24,07,38,8.80
2013,05,24,07,39,8.80
2013,05,24,07,40,8.90
2013,05,24,07,41,8.90
2013,05,24,07,42,9.00
2013,05,24,07,43,9.00
2013,05,24,07,44,9.00
2013,05,24,07,45,9.10
2013,05,24,07,46,9.10
2013,05,24,07,47,9.20
2013,05,24,07,48,9.30
2013,05,24,07,49,9.30
2013,05,24,07,50,9.40
2013,05,24,07,51,9.50
2013,05,24,07,52,9.60
2013,05,24,07,53,9.60
2013,05,24,07,54,9.70
2013,05,24,07,55,9.80
2013,05,24,07,56,9.90
2013,05,24,07,57,9.90
2013,05,24,07,58,9.90
2013,05,24,07,59,10.00
2013,05,24,08,00,10.10
2013,05,24,08,01,10.10
2013,05,24,08,02,10.20
2013,05,24,08,03,10.20
2013,05,24,08,04,10.30
2013,05,24,08,05,10.30
2013,05,24,08,06,10.40
2013,05,24,08,07,10.50
2013,05,24,08,08,10.60
2013,05,24,08,09,10.70
2013,05,24,08,10,10.70
2013,05,24,08,11,10.80
2013,05,24,08,12,10.90
2013,05,24,08,13,11.00
2013,05,24,08,14,11.10
2013,05,24,08,15,11.10
2013,05,24,08,16,11.20
2013,05,24,08,17,11.30
2013,05,24,08,18,11.30
2013,05,24,08,19,11.30
2013,05,24,08,20,11.40
2013,05,24,08,21,11.40
2013,05,24,08,22,11.40
2013,05,24,08,23,11.40
2013,05,24,08,24,11.40
2013,05,24,08,25,11.40
2013,05,24,08,26,11.40
2013,05,24,08,27,11.40
2013,05,24,08,28,11.40
2013,05,24,08,29,11.40
2013,05,24,08,30,11.30
2013,05,24,08,31,11.40
2013,05,24,08,32,11.40
2013,05,24,08,33,11.40
2013,05,24,08,34,11.40
2013,05,24,08,35,11.40
2013,05,24,08,36,11.50
2013,05,24,08,37,11.50
2013,05,24,08,38,11.60
2013,05,24,08,39,11.60
2013,05,24,08,40,11.70
2013,05,24,08,41,11.70
2013,05,24,08,42,11.70
2013,05,24,08,43,11.70
2013,05,24,08,44,11.80
2013,05,24,08,45,11.80
2013,05,24,08,46,11.90
2013,05,24,08,47,12.00
2013,05,24,08,48,12.00
2013,05,24,08,49,12.10
2013,05,24,08,50,12.10
2013,05,24,08,51,12.10
2013,05,24,08,52,12.10
2013,05,24,08,53,12.10
2013,05,24,08,54,12.10
2013,05,24,08,55,12.00
2013,05,24,08,56,12.00
2013,05,24,08,57,11.90
2013,05,24,08,58,11.90
2013,05,24,08,59,11.80
2013,05,24,09,00,11.80
2013,05,24,09,01,11.80
2013,05,24,09,02,11.80
2013,05,24,09,03,11.80
2013,05,24,09,04,11.90
2013,05,24,09,05,11.90
2013,05,24,09,06,11.90
2013,05,24,09,07,11.90
2013,05,24,09,08,11.90
2013,05,24,09,09,11.90
2013,05,24,09,10,11.90
2013,05,24,09,11,12.00
2013,05,24,09,12,12.10
2013,05,24,09,13,12.20
2013,05,24,09,14,12.20
2013,05,24,09,15,12.30
2013,05,24,09,16,12.40
2013,05,24,09,17,12.50
2013,05,24,09,18,12.60
2013,05,24,09,19,12.70
2013,05,24,09,20,12.80
2013,05,24,09,21,12.80
2013,05,24,09,22,12.90
2013,05,24,09,23,13.00
2013,05,24,09,24,13.00
2013,05,24,09,25,13.10
2013,05,24,09,26,13.10
2013,05,24,09,27,13.10
2013,05,24,09,28,13.10
2013,05,24,09,29,13.20
2013,05,24,09,30,13.10
2013,05,24,09,31,13.10
2013,05,24,09,32,13.10
2013,05,24,09,33,13.00
2013,05,24,09,34,13.00
2013,05,24,09,35,12.90
2013,05,24,09,36,12.90
2013,05,24,09,37,12.80
2013,05,24,09,38,12.70
2013,05,24,09,39,12.70
2013,05,24,09,40,12.60
2013,05,24,09,41,12.70
2013,05,24,09,42,12.70
2013,05,24,09,43,12.70
2013,05,24,09,44,12.80
2013,05,24,09,45,12.80
2013,05,24,09,46,12.90
2013,05,24,09,47,12.90
2013,05,24,09,48,12.90
2013,05,24,09,49,12.90
2013,05,24,09,50,13.00
2013,05,24,09,51,13.00
2013,05,24,09,52,13.10
2013,05,24,09,53,13.10
2013,05,24,09,54,13.10
2013,05,24,09,55,13.00
2013,05,24,09,56,13.00
2013,05,24,09,57,12.90
2013,05,24,09,58,12.90
2013,05,24,09,59,12.90
2013,05,24,10,00,12.90
2013,05,24,10,01,12.90
2013,05,24,10,02,13.00
2013,05,24,10,03,13.10
2013,05,24,10,04,13.10
2013,05,24,10,05,13.20
2013,05,24,10,06,13.30
2013,05,24,10,07,13.30
2013,05,24,10,08,13.20
2013,05,24,10,09,13.30
2013,05,24,10,10,13.40
2013,05,24,10,11,13.40
2013,05,24,10,12,13.40
2013,05,24,10,13,13.40
2013,05,24,10,14,13.50
2013,05,24,10,15,13.50
2013,05,24,10,16,13.60
2013,05,24,10,17,13.60
2013,05,24,10,18,13.60
2013,05,24,10,19,13.60
2013,05,24,10,20,13.60
2013,05,24,10,21,13.70
2013,05,24,10,22,13.80
2013,05,24,10,23,13.80
2013,05,24,10,24,13.80
2013,05,24,10,25,13.60
2013,05,24,10,26,13.50
2013,05,24,10,27,13.30
2013,05,24,10,28,13.00
2013,05,24,10,29,12.70
2013,05,24,10,30,12.50
2013,05,24,10,31,12.30
2013,05,24,10,32,12.10
2013,05,24,10,33,11.90
2013,05,24,10,34,11.80
2013,05,24,10,35,11.70
2013,05,24,10,36,11.60
2013,05,24,10,37,11.50
2013,05,24,10,38,11.50
2013,05,24,10,39,11.50
2013,05,24,10,40,11.50
2013,05,24,10,41,11.60
2013,05,24,10,42,11.70
2013,05,24,10,43,11.80
2013,05,24,10,44,11.90
2013,05,24,10,45,12.00
2013,05,24,10,46,12.10
2013,05,24,10,47,12.20
2013,05,24,10,48,12.40
2013,05,24,10,49,12.40
2013,05,24,10,50,12.40
2013,05,24,10,51,12.50
2013,05,24,10,52,12.50
2013,05,24,10,53,12.60
2013,05,24,10,54,12.60
2013,05,24,10,55,12.70
2013,05,24,10,56,12.70
2013,05,24,10,57,12.70
2013,05,24,10,58,12.70
2013,05,24,10,59,12.70
2013,05,24,11,00,12.70
2013,05,24,11,01,12.70
2013,05,24,11,02,12.70
2013,05,24,11,03,12.80
2013,05,24,11,04,12.80
2013,05,24,11,05,12.90
2013,05,24,11,06,12.90
2013,05,24,11,07,12.90
2013,05,24,11,08,12.80
2013,05,24,11,09,12.90
2013,05,24,11,10,12.90
2013,05,24,11,11,12.90
2013,05,24,11,12,13.00
2013,05,24,11,13,13.00
2013,05,24,11,14,13.10
2013,05,24,11,15,13.20
2013,05,24,11,16,13.20
2013,05,24,11,17,13.30
2013,05,24,11,18,13.40
2013,05,24,11,19,13.50
2013,05,24,11,20,13.50
2013,05,24,11,21,13.60
2013,05,24,11,22,13.60
2013,05,24,11,23,13.50
2013,05,24,11,24,13.50
2013,05,24,11,25,13.40
2013,05,24,11,26,13.40
2013,05,24,11,27,13.40
2013,05,24,11,28,13.50
2013,05,24,11,29,13.50
2013,05,24,11,30,13.60
2013,05,24,11,31,13.70
2013,05,24,11,32,13.80
2013,05,24,11,33,13.80
2013,05,24,11,34,13.80
2013,05,24,11,35,13.90
2013,05,24,11,36,13.80
2013,05,24,11,37,13.80
2013,05,24,11,38,13.90
2013,05,24,11,39,13.90
2013,05,24,11,40,14.00
2013,05,24,11,41,14.00
2013,05,24,11,42,14.10
2013,05,24,11,43,14.10
2013,05,24,11,44,14.20
2013,05,24,11,45,14.30
2013,05,24,11,46,14.40
2013,05,24,11,47,14.40
2013,05,24,11,48,14.60
2013,05,24,11,49,14.70
2013,05,24,11,50,14.70
2013,05,24,11,51,14.70
2013,05,24,11,52,14.60
2013,05,24,11,53,14.50
2013,05,24,11,54,14.40
2013,05,24,11,55,14.40
2013,05,24,11,56,14.50
2013,05,24,11,57,14.50
2013,05,24,11,58,14.60
2013,05,24,11,59,14.60
2013,05,24,12,00,14.50
2013,05,24,12,01,14.50
2013,05,24,12,02,14.50
2013,05,24,12,03,14.60
2013,05,24,12,04,14.50
2013,05,24,12,05,14.50
2013,05,24,12,06,14.50
2013,05,24,12,07,14.60
2013,05,24,12,08,14.50
2013,05,24,12,09,14.50
2013,05,24,12,10,14.40
2013,05,24,12,11,14.40
2013,05,24,12,12,14.40
2013,05,24,12,13,14.40
2013,05,24,12,14,14.40
2013,05,24,12,15,14.40
2013,05,24,12,16,14.40
2013,05,24,12,17,14.40
2013,05,24,12,18,14.40
2013,05,24,12,19,14.40
2013,05,24,12,20,14.40
2013,05,24,12,21,14.40
2013,05,24,12,22,14.40
2013,05,24,12,23,14.40
2013,05,24,12,24,14.40
2013,05,24,12,25,14.40
2013,05,24,12,26,14.40
2013,05,24,12,27,14.40
2013,05,24,12,28,14.30
2013,05,24,12,29,14.30
2013,05,24,12,30,14.40
2013,05,24,12,31,14.40
2013,05,24,12,32,14.40
2013,05,24,12,33,14.40
2013,05,24,12,34,14.40
2013,05,24,12,35,14.40
2013,05,24,12,36,14.50
2013,05,24,12,37,14.50
2013,05,24,12,38,14.50
2013,05,24,12,39,14.50
2013,05,24,12,40,14.50
2013,05,24,12,41,14.60
2013,05,24,12,42,14.60
2013,05,24,12,43,14.60
2013,05,24,12,44,14.70
2013,05,24,12,45,14.70
2013,05,24,12,46,14.70
2013,05,24,12,47,14.70
2013,05,24,12,48,14.60
2013,05,24,12,49,14.60
2013,05,24,12,50,14.60
2013,05,24,12,51,14.60
2013,05,24,12,52,14.70
2013,05,24,12,53,14.80
2013,05,24,12,54,14.90
2013,05,24,12,55,14.90
2013,05,24,12,56,15.00
2013,05,24,12,57,15.00
2013,05,24,12,58,15.10
2013,05,24,12,59,15.10
2013,05,24,13,00,15.20
2013,05,24,13,01,15.30
2013,05,24,13,02,15.30
2013,05,24,13,03,15.30
2013,05,24,13,04,15.30
2013,05,24,13,05,15.30
2013,05,24,13,06,15.20
2013,05,24,13,07,15.20
2013,05,24,13,08,15.10
2013,05,24,13,09,15.10
2013,05,24,13,10,15.10
2013,05,24,13,11,15.10
2013,05,24,13,12,15.00
2013,05,24,13,13,15.00
2013,05,24,13,14,14.90
2013,05,24,13,15,14.80
2013,05,24,13,16,14.80
2013,05,24,13,17,14.80
2013,05,24,13,18,14.80
2013,05,24,13,19,14.90
2013,05,24,13,20,15.00
2013,05,24,13,21,15.10
2013,05,24,13,22,15.20
2013,05,24,13,23,15.20
2013,05,24,13,24,15.30
2013,05,24,13,25,15.30
2013,05,24,13,26,15.20
2013,05,24,13,27,15.10
2013,05,24,13,28,15.00
2013,05,24,13,29,14.90
2013,05,24,13,30,14.80
2013,05,24,13,31,14.70
2013,05,24,13,32,14.70
2013,05,24,13,33,14.70
2013,05,24,13,34,14.70
2013,05,24,13,35,14.70
2013,05,24,13,36,14.60
2013,05,24,13,37,14.70
2013,05,24,13,38,14.70
2013,05,24,13,39,14.70
2013,05,24,13,40,14.80
2013,05,24,13,41,14.80
2013,05,24,13,42,14.90
2013,05,24,13,43,14.90
2013,05,24,13,44,14.90
2013,05,24,13,45,14.90
2013,05,24,13,46,14.80
2013,05,24,13,47,14.80
2013,05,24,13,48,14.80
2013,05,24,13,49,14.90
2013,05,24,13,50,14.90
2013,05,24,13,51,15.00
2013,05,24,13,52,15.00
2013,05,24,13,53,15.00
2013,05,24,13,54,15.00
2013,05,24,13,55,14.90
2013,05,24,13,56,14.90
2013,05,24,13,57,14.90
2013,05,24,13,58,14.80
2013,05,24,13,59,14.80
2013,05,24,14,00,14.70
2013,05,24,14,01,14.70
2013,05,24,14,02,14.70
2013,05,24,14,03,14.70
2013,05,24,14,04,14.70
2013,05,24,14,05,14.60
2013,05,24,14,06,14.50
2013,05,24,14,07,14.50
2013,05,24,14,08,14.40
2013,05,24,14,09,14.40
2013,05,24,14,10,14.40
2013,05,24,14,11,14.40
2013,05,24,14,12,14.40
2013,05,24,14,13,14.30
2013,05,24,14,14,14.30
2013,05,24,14,15,14.20
2013,05,24,14,16,14.20
2013,05,24,14,17,14.30
2013,05,24,14,18,14.40
2013,05,24,14,19,14.50
2013,05,24,14,20,14.60
2013,05,24,14,21,14.70
2013,05,24,14,22,14.60
2013,05,24,14,23,14.60
2013,05,24,14,24,14.70
2013,05,24,14,25,14.70
2013,05,24,14,26,14.70
2013,05,24,14,27,14.60
2013,05,24,14,28,14.60
2013,05,24,14,29,14.60
2013,05,24,14,30,14.60
2013,05,24,14,31,14.60
2013,05,24,14,32,14.70
2013,05,24,14,33,14.70
2013,05,24,14,34,14.80
2013,05,24,14,35,14.90
2013,05,24,14,36,14.90
2013,05,24,14,37,14.90
2013,05,24,14,38,14.80
2013,05,24,14,39,14.60
2013,05,24,14,40,14.60
2013,05,24,14,41,14.60
2013,05,24,14,42,14.60
2013,05,24,14,43,14.50
2013,05,24,14,44,14.50
2013,05,24,14,45,14.40
2013,05,24,14,46,14.40
2013,05,24,14,47,14.40
2013,05,24,14,48,14.50
2013,05,24,14,49,14.60
2013,05,24,14,50,14.70
2013,05,24,14,51,14.80
2013,05,24,14,52,14.90
2013,05,24,14,53,14.90
2013,05,24,14,54,14.90
2013,05,24,14,55,14.80
2013,05,24,14,56,14.70
2013,05,24,14,57,14.70
2013,05,24,14,58,14.70
2013,05,24,14,59,14.70
2013,05,24,15,00,14.60
2013,05,24,15,01,14.50
2013,05,24,15,02,14.60
2013,05,24,15,03,14.60
2013,05,24,15,04,14.60
2013,05,24,15,05,14.60
2013,05,24,15,06,14.70
2013,05,24,15,07,14.80
2013,05,24,15,08,14.80
2013,05,24,15,09,14.80
2013,05,24,15,10,14.70
2013,05,24,15,11,14.70
2013,05,24,15,12,14.70
2013,05,24,15,13,14.80
2013,05,24,15,14,14.80
2013,05,24,15,15,14.80
2013,05,24,15,16,14.90
2013,05,24,15,17,14.80
2013,05,24,15,18,14.80
2013,05,24,15,19,14.80
2013,05,24,15,20,14.90
2013,05,24,15,21,15.00
2013,05,24,15,22,15.10
2013,05,24,15,23,15.10
2013,05,24,15,24,15.10
2013,05,24,15,25,15.00
2013,05,24,15,26,15.00
2013,05,24,15,27,14.90
2013,05,24,15,28,14.90
2013,05,24,15,29,14.90
2013,05,24,15,30,15.00
2013,05,24,15,31,15.10
2013,05,24,15,32,15.10
2013,05,24,15,33,15.20
2013,05,24,15,34,15.20
2013,05,24,15,35,15.20
2013,05,24,15,36,15.20
2013,05,24,15,37,15.30
2013,05,24,15,38,15.40
2013,05,24,15,39,15.40
2013,05,24,15,40,15.50
2013,05,24,15,41,15.60
2013,05,24,15,42,15.70
2013,05,24,15,43,15.70
2013,05,24,15,44,15.60
2013,05,24,15,45,15.60
2013,05,24,15,46,15.50
2013,05,24,15,47,15.40
2013,05,24,15,48,15.30
2013,05,24,15,49,15.30
2013,05,24,15,50,15.30
2013,05,24,15,51,15.30
2013,05,24,15,52,15.30
2013,05,24,15,53,15.30
2013,05,24,15,54,15.30
2013,05,24,15,55,15.30
2013,05,24,15,56,15.30
2013,05,24,15,57,15.40
2013,05,24,15,58,15.40
2013,05,24,15,59,15.30
2013,05,24,16,00,15.20
2013,05,24,16,01,15.20
2013,05,24,16,02,15.10
2013,05,24,16,03,15.00
2013,05,24,16,04,14.90
2013,05,24,16,05,14.90
2013,05,24,16,06,15.00
2013,05,24,16,07,15.00
2013,05,24,16,08,15.00
2013,05,24,16,09,15.00
2013,05,24,16,10,15.10
2013,05,24,16,11,15.10
2013,05,24,16,12,15.10
2013,05,24,16,13,15.10
2013,05,24,16,14,15.10
2013,05,24,16,15,15.10
2013,05,24,16,16,15.10
2013,05,24,16,17,15.10
2013,05,24,16,18,15.10
2013,05,24,16,19,15.10
2013,05,24,16,20,15.10
2013,05,24,16,21,15.20
2013,05,24,16,22,15.20
2013,05,24,16,23,15.30
2013,05,24,16,24,15.30
2013,05,24,16,25,15.30
2013,05,24,16,26,15.30
2013,05,24,16,27,15.30
2013,05,24,16,28,15.40
2013,05,24,16,29,15.50
2013,05,24,16,30,15.60
2013,05,24,16,31,15.60
2013,05,24,16,32,15.70
2013,05,24,16,33,15.80
2013,05,24,16,34,15.80
2013,05,24,16,35,15.70
2013,05,24,16,36,15.70
2013,05,24,16,37,15.80
2013,05,24,16,38,15.90
2013,05,24,16,39,15.90
2013,05,24,16,40,15.90
2013,05,24,16,41,16.00
2013,05,24,16,42,16.10
2013,05,24,16,43,16.10
2013,05,24,16,44,16.20
2013,05,24,16,45,16.20
2013,05,24,16,46,16.20
2013,05,24,16,47,16.20
2013,05,24,16,48,16.20
2013,05,24,16,49,16.00
2013,05,24,16,50,16.00
2013,05,24,16,51,16.00
2013,05,24,16,52,16.00
2013,05,24,16,53,15.90
2013,05,24,16,54,15.80
2013,05,24,16,55,15.80
2013,05,24,16,56,15.80
2013,05,24,16,57,15.90
2013,05,24,16,58,16.00
2013,05,24,16,59,16.00
2013,05,24,17,00,16.00
2013,05,24,17,01,16.10
2013,05,24,17,02,16.10
2013,05,24,17,03,16.10
2013,05,24,17,04,16.00
2013,05,24,17,05,15.90
2013,05,24,17,06,15.90
2013,05,24,17,07,15.80
2013,05,24,17,08,15.80
2013,05,24,17,09,15.80
2013,05,24,17,10,15.80
2013,05,24,17,11,15.70
2013,05,24,17,12,15.60
2013,05,24,17,13,15.60
2013,05,24,17,14,15.70
2013,05,24,17,15,15.70
2013,05,24,17,16,15.70
2013,05,24,17,17,15.80
2013,05,24,17,18,15.80
2013,05,24,17,19,15.80
2013,05,24,17,20,15.80
2013,05,24,17,21,15.80
2013,05,24,17,22,15.90
2013,05,24,17,23,15.80
2013,05,24,17,24,15.80
2013,05,24,17,25,15.90
2013,05,24,17,26,15.90
2013,05,24,17,27,15.90
2013,05,24,17,28,16.00
2013,05,24,17,29,16.00
2013,05,24,17,30,16.00
2013,05,24,17,31,16.10
2013,05,24,17,32,16.00
2013,05,24,17,33,16.00
2013,05,24,17,34,16.10
2013,05,24,17,35,16.10
2013,05,24,17,36,16.20
2013,05,24,17,37,16.20
2013,05,24,17,38,16.20
2013,05,24,17,39,16.30
2013,05,24,17,40,16.40